DELTA 1 DEB, 10471

Orbit data source: Space-Track

DELTA 1 DEB, 10471 is space debris in LEO originally from a launch on Thu, 14 Jul 1977 UTC launched from the Air Force Eastern Test Range (AFETR). Debris objects in space refer to the collection of defunct objects orbiting the Earth. Examples of debris include non-operational satellites, rocket bodies, and fragments generated from explosions, collisions, or faulty payload assembly.

Loading next visibility...
Identifier
10471, 1977-065ED
Orbit
LEO
Country
Flag of USUS
Related business
Manufacturer
Unknown
Mission
Spacecraft
Bus & Motor
Unknown
Mass
Unknown
Launch date (UTC)
1977-07-14 (49 years ago)
Launch vehicle
Unknown
Launch site
Air Force Eastern Test Range (AFETR)
Object type
Payload
Rocket body
Debris
Shape & HBR
Unknown shape, 0.5 m
Radar Cross Section
Medium (>0.1 m² and <1 m²)

Expand to show TLE details & history
Last TLE update: 11 hours ago

TLE from 11 hours ago
0 DELTA 1 DEB
1 10471U 77065ED  26262.95422824  .00000708  00000-0  18109-3 0  9999
2 10471  29.0573 118.9572 0842652 147.8377 217.6520 13.26114153365967
Epoch: 2026-09-19T22:54Z
TLE epoch observation values (Epoch: 2026-09-19T22:54:05.319Z)
Latitude
-0.00003°
Longitude
136.57963°
Altitude
1,680.911 km
Speed
6.789 km/s
True Right ascension
07h 55m 49s
True Declination
0° 00' 00"
Sunlit
Object was in daylight at epoch
Visualization orbit readout
Latitude
Unknown
Longitude
Unknown
Altitude
Unknown
Speed
Unknown
Apparent Right ascension
Unknown
Apparent Declination
Unknown
Sunlit
N/A
Visualization observer readout
Local Sidereal Time
02:42:37
Azimuth
Unknown
Elevation
Unknown
Doppler factor
Unknown
Orbital elements
Apogee altitude
1,800.924 km
Perigee altitude
529.63 km
Semi-major axis
7,543.414 km
Eccentricity
0.08427
Inclination
29.0573°
RAAN
118.9572°
Arg. of periapsis
147.8377°
True anomaly
212.21679°
Mean anomaly
217.652°
Eccentric anomaly
214.89033°
Mean motion
3.31277 °/min
Orbital period
108.67 mins
BSTAR
0.00018109
Loading maneuver chart data...
Computing Atmospheric mass density...

Documentation

Showing up to 5 results
|